Time,TemperatureF,DewpointF,PressureIn,WindDirection,WindDirectionDegrees,WindSpeedMPH,WindSpeedGustMPH,Humidity,HourlyPrecipIn,Conditions,Clouds,dailyrainin,SoftwareType,DateUTC
2013-05-22 00:23:00,63.0,62.0,29.12,North,0,0.0,0.0,98,0.00,,,0.00,,2013-05-22 04:23:00,
2013-05-22 00:33:00,63.0,62.0,29.12,North,0,0.0,0.0,98,0.00,,,0.00,,2013-05-22 04:33:00,
2013-05-22 00:43:00,63.0,62.0,29.12,North,0,0.0,0.0,98,0.00,,,0.00,,2013-05-22 04:43:00,
2013-05-22 00:53:00,63.0,62.0,29.12,North,0,0.0,0.0,98,0.00,,,0.00,,2013-05-22 04:53:00,
2013-05-22 01:02:00,64.0,63.0,29.12,North,0,0.0,0.0,98,0.00,,,0.00,,2013-05-22 05:02:00,
2013-05-22 01:12:00,64.0,63.0,29.12,North,0,0.0,0.0,98,0.00,,,0.00,,2013-05-22 05:12:00,
2013-05-22 01:22:00,64.0,63.0,29.12,North,0,0.0,0.0,98,0.00,,,0.00,,2013-05-22 05:22:00,
2013-05-22 01:32:00,64.0,63.0,29.12,North,0,0.0,0.0,98,0.00,,,0.00,,2013-05-22 05:32:00,
2013-05-22 01:42:00,64.0,63.0,29.12,North,0,0.0,0.0,98,0.00,,,0.00,,2013-05-22 05:42:00,
2013-05-22 01:51:00,64.0,63.0,29.12,North,0,0.0,0.0,98,0.00,,,0.00,,2013-05-22 05:51:00,
2013-05-22 02:01:00,63.0,62.0,29.09,North,0,0.0,0.0,98,0.00,,,0.00,,2013-05-22 06:01:00,
2013-05-22 02:12:00,63.0,62.0,29.09,North,0,0.0,0.0,98,0.00,,,0.00,,2013-05-22 06:12:00,
2013-05-22 02:21:00,64.0,63.0,29.09,East,82,4.0,5.0,98,0.00,,,0.00,,2013-05-22 06:21:00,
2013-05-22 02:32:00,64.0,63.0,29.09,North,0,0.0,5.0,98,0.00,,,0.00,,2013-05-22 06:32:00,
2013-05-22 02:42:00,64.0,63.0,29.09,North,0,0.0,5.0,98,0.00,,,0.00,,2013-05-22 06:42:00,
2013-05-22 02:52:00,64.0,63.0,29.09,North,0,0.0,5.0,98,0.00,,,0.00,,2013-05-22 06:52:00,
2013-05-22 03:01:00,63.0,62.0,29.06,North,0,0.0,0.0,98,0.00,,,0.00,,2013-05-22 07:01:00,
2013-05-22 03:11:00,63.0,62.0,29.06,North,0,0.0,0.0,98,0.00,,,0.00,,2013-05-22 07:11:00,
2013-05-22 03:21:00,63.0,62.0,29.06,North,0,0.0,0.0,98,0.00,,,0.00,,2013-05-22 07:21:00,
2013-05-22 03:32:00,63.0,62.0,29.06,North,0,0.0,0.0,98,0.00,,,0.00,,2013-05-22 07:32:00,
2013-05-22 03:42:00,63.0,62.0,29.06,North,0,0.0,0.0,98,0.00,,,0.00,,2013-05-22 07:42:00,
2013-05-22 03:53:00,63.0,62.0,29.06,North,0,0.0,0.0,98,0.00,,,0.00,,2013-05-22 07:53:00,
2013-05-22 04:02:00,62.0,61.0,29.06,North,0,0.0,4.0,98,0.00,,,0.00,,2013-05-22 08:02:00,
2013-05-22 04:11:00,62.0,61.0,29.06,North,0,0.0,4.0,98,0.00,,,0.00,,2013-05-22 08:11:00,
2013-05-22 04:22:00,62.0,61.0,29.06,North,0,0.0,0.0,98,0.00,,,0.00,,2013-05-22 08:22:00,
2013-05-22 04:32:00,61.0,60.0,29.09,North,0,0.0,0.0,98,0.00,,,0.00,,2013-05-22 08:32:00,
2013-05-22 04:42:00,61.0,60.0,29.09,North,0,0.0,0.0,98,0.00,,,0.00,,2013-05-22 08:42:00,
2013-05-22 04:52:00,61.0,60.0,29.09,North,0,0.0,0.0,98,0.00,,,0.00,,2013-05-22 08:52:00,
2013-05-22 05:01:00,62.0,61.0,29.09,North,0,0.0,0.0,98,0.00,,,0.00,,2013-05-22 09:01:00,
2013-05-22 05:12:00,62.0,61.0,29.09,North,0,0.0,0.0,98,0.00,,,0.00,,2013-05-22 09:12:00,
2013-05-22 05:22:00,62.0,61.0,29.09,North,0,0.0,0.0,98,0.00,,,0.00,,2013-05-22 09:22:00,
2013-05-22 05:33:00,61.0,60.0,29.09,North,0,0.0,0.0,98,0.00,,,0.00,,2013-05-22 09:33:00,
2013-05-22 05:42:00,61.0,60.0,29.09,North,0,0.0,0.0,98,0.00,,,0.00,,2013-05-22 09:42:00,
2013-05-22 05:53:00,61.0,60.0,29.09,North,0,0.0,0.0,98,0.00,,,0.00,,2013-05-22 09:53:00,
2013-05-22 06:03:00,61.0,60.0,29.09,North,0,0.0,0.0,98,0.00,,,0.00,,2013-05-22 10:03:00,
2013-05-22 06:12:00,61.0,60.0,29.09,North,0,0.0,0.0,98,0.00,,,0.00,,2013-05-22 10:12:00,
2013-05-22 06:23:00,60.0,59.0,29.09,North,0,0.0,0.0,98,0.00,,,0.00,,2013-05-22 10:23:00,
2013-05-22 06:33:00,60.0,59.0,29.09,North,0,0.0,0.0,98,0.00,,,0.00,,2013-05-22 10:33:00,
2013-05-22 06:42:00,60.0,59.0,29.09,North,0,0.0,0.0,98,0.00,,,0.00,,2013-05-22 10:42:00,
2013-05-22 06:53:00,60.0,59.0,29.09,North,0,0.0,0.0,98,0.00,,,0.00,,2013-05-22 10:53:00,
2013-05-22 07:02:00,60.0,59.0,29.09,North,0,0.0,0.0,98,0.00,,,0.00,,2013-05-22 11:02:00,
2013-05-22 07:11:00,60.0,59.0,29.09,North,0,0.0,0.0,98,0.00,,,0.00,,2013-05-22 11:11:00,
2013-05-22 07:22:00,61.0,60.0,29.12,North,0,0.0,0.0,98,0.00,,,0.00,,2013-05-22 11:22:00,
2013-05-22 07:32:00,61.0,60.0,29.12,North,0,0.0,0.0,98,0.00,,,0.00,,2013-05-22 11:32:00,
2013-05-22 07:42:00,61.0,60.0,29.12,North,0,0.0,0.0,98,0.00,,,0.00,,2013-05-22 11:42:00,
2013-05-22 07:52:00,61.0,60.0,29.12,North,0,0.0,0.0,98,0.00,,,0.00,,2013-05-22 11:52:00,
2013-05-22 08:02:00,62.0,61.0,29.12,North,0,0.0,0.0,98,0.00,,,0.00,,2013-05-22 12:02:00,
2013-05-22 08:12:00,62.0,61.0,29.12,North,0,0.0,0.0,98,0.00,,,0.00,,2013-05-22 12:12:00,
2013-05-22 08:22:00,64.0,63.0,29.12,North,0,0.0,0.0,98,0.00,,,0.00,,2013-05-22 12:22:00,
2013-05-22 08:32:00,64.0,63.0,29.12,North,0,0.0,0.0,98,0.00,,,0.00,,2013-05-22 12:32:00,
2013-05-22 08:42:00,64.0,63.0,29.12,North,0,0.0,0.0,98,0.00,,,0.00,,2013-05-22 12:42:00,
2013-05-22 08:52:00,70.0,66.0,29.12,North,0,0.0,0.0,86,0.00,,,0.00,,2013-05-22 12:52:00,
2013-05-22 09:02:00,77.0,65.0,29.12,North,0,0.0,0.0,66,0.00,,,0.00,,2013-05-22 13:02:00,
2013-05-22 09:12:00,77.0,65.0,29.12,North,0,0.0,0.0,66,0.00,,,0.00,,2013-05-22 13:12:00,
2013-05-22 09:22:00,77.0,65.0,29.12,North,0,0.0,0.0,66,0.00,,,0.00,,2013-05-22 13:22:00,
2013-05-22 09:32:00,83.0,63.0,29.12,NW,312,7.0,12.0,51,0.00,,,0.00,,2013-05-22 13:32:00,
2013-05-22 09:42:00,83.0,63.0,29.12,NW,312,7.0,12.0,51,0.00,,,0.00,,2013-05-22 13:42:00,
2013-05-22 09:52:00,90.0,64.0,29.12,North,355,5.0,11.0,42,0.00,,,0.00,,2013-05-22 13:52:00,
2013-05-22 10:02:00,90.0,64.0,29.12,North,355,5.0,11.0,42,0.00,,,0.00,,2013-05-22 14:02:00,
2013-05-22 10:11:00,90.0,64.0,29.12,North,355,5.0,11.0,42,0.00,,,0.00,,2013-05-22 14:11:00,
2013-05-22 10:22:00,90.0,64.0,29.12,North,355,5.0,11.0,42,0.00,,,0.00,,2013-05-22 14:22:00,
2013-05-22 10:53:00,89.0,65.0,29.09,NW,316,6.0,13.0,46,0.00,,,0.00,,2013-05-22 14:53:00,
2013-05-22 11:02:00,89.0,65.0,29.09,NW,316,6.0,13.0,46,0.00,,,0.00,,2013-05-22 15:02:00,
2013-05-22 11:11:00,89.0,65.0,29.09,NW,316,6.0,13.0,46,0.00,,,0.00,,2013-05-22 15:11:00,
2013-05-22 11:22:00,88.0,65.0,29.09,NW,316,4.0,10.0,47,0.00,,,0.00,,2013-05-22 15:22:00,
2013-05-22 11:33:00,84.0,63.0,29.09,North,354,6.0,8.0,50,0.00,,,0.00,,2013-05-22 15:33:00,
2013-05-22 11:43:00,84.0,63.0,29.09,North,354,6.0,8.0,50,0.00,,,0.00,,2013-05-22 15:43:00,
2013-05-22 11:53:00,84.0,66.0,29.09,NNW,327,4.0,8.0,55,0.00,,,0.00,,2013-05-22 15:53:00,
2013-05-22 12:03:00,86.0,65.0,29.09,NE,37,4.0,9.0,50,0.00,,,0.00,,2013-05-22 16:03:00,
2013-05-22 12:12:00,86.0,65.0,29.09,NE,37,4.0,9.0,50,0.00,,,0.00,,2013-05-22 16:12:00,
2013-05-22 12:23:00,85.0,62.0,29.09,NE,35,4.0,9.0,46,0.00,,,0.00,,2013-05-22 16:23:00,
2013-05-22 12:33:00,84.0,64.0,29.09,North,0,0.0,6.0,51,0.00,,,0.00,,2013-05-22 16:33:00,
2013-05-22 12:42:00,84.0,64.0,29.09,North,0,0.0,6.0,51,0.00,,,0.00,,2013-05-22 16:42:00,
2013-05-22 12:52:00,86.0,62.0,29.09,ENE,65,7.0,13.0,45,0.00,,,0.00,,2013-05-22 16:52:00,
2013-05-22 13:02:00,87.0,60.0,29.09,ENE,65,8.0,13.0,40,0.00,,,0.00,,2013-05-22 17:02:00,
2013-05-22 13:12:00,87.0,60.0,29.09,ENE,65,8.0,13.0,40,0.00,,,0.00,,2013-05-22 17:12:00,
2013-05-22 13:23:00,87.0,60.0,29.09,ENE,65,8.0,13.0,40,0.00,,,0.00,,2013-05-22 17:23:00,
2013-05-22 13:33:00,86.0,60.0,29.09,ENE,73,6.0,12.0,42,0.00,,,0.00,,2013-05-22 17:33:00,
2013-05-22 13:42:00,86.0,60.0,29.09,ENE,73,6.0,12.0,42,0.00,,,0.00,,2013-05-22 17:42:00,
2013-05-22 13:53:00,86.0,60.0,29.09,ENE,73,6.0,12.0,42,0.00,,,0.00,,2013-05-22 17:53:00,
2013-05-22 14:02:00,86.0,60.0,29.09,ENE,73,6.0,12.0,42,0.00,,,0.00,,2013-05-22 18:02:00,
2013-05-22 14:14:00,86.0,60.0,29.09,ENE,73,6.0,12.0,42,0.00,,,0.00,,2013-05-22 18:14:00,
2013-05-22 14:22:00,87.0,60.0,29.09,ENE,63,7.0,13.0,40,0.00,,,0.00,,2013-05-22 18:22:00,
2013-05-22 14:34:00,87.0,62.0,29.06,NE,53,4.0,13.0,43,0.00,,,0.00,,2013-05-22 18:34:00,
2013-05-22 14:42:00,87.0,62.0,29.06,NE,53,4.0,13.0,43,0.00,,,0.00,,2013-05-22 18:42:00,
2013-05-22 14:52:00,87.0,60.0,29.06,NE,52,10.0,14.0,40,0.00,,,0.00,,2013-05-22 18:52:00,
2013-05-22 15:02:00,88.0,61.0,29.06,ENE,60,9.0,13.0,40,0.00,,,0.00,,2013-05-22 19:02:00,
2013-05-22 15:11:00,88.0,61.0,29.06,ENE,60,9.0,13.0,40,0.00,,,0.00,,2013-05-22 19:11:00,
2013-05-22 15:21:00,87.0,60.0,29.03,ENE,64,7.0,13.0,40,0.00,,,0.00,,2013-05-22 19:21:00,
2013-05-22 15:32:00,88.0,61.0,29.03,ENE,68,4.0,12.0,41,0.00,,,0.00,,2013-05-22 19:32:00,
2013-05-22 15:42:00,88.0,61.0,29.03,ENE,68,4.0,12.0,41,0.00,,,0.00,,2013-05-22 19:42:00,
2013-05-22 15:52:00,87.0,60.0,29.03,ENE,65,4.0,11.0,41,0.00,,,0.00,,2013-05-22 19:52:00,
2013-05-22 16:02:00,87.0,60.0,29.03,ENE,69,8.0,12.0,40,0.00,,,0.00,,2013-05-22 20:02:00,
2013-05-22 16:11:00,87.0,60.0,29.03,ENE,69,8.0,12.0,40,0.00,,,0.00,,2013-05-22 20:11:00,
2013-05-22 16:22:00,87.0,60.0,29.03,ENE,69,8.0,12.0,40,0.00,,,0.00,,2013-05-22 20:22:00,
2013-05-22 16:32:00,87.0,60.0,29.03,ENE,69,8.0,12.0,40,0.00,,,0.00,,2013-05-22 20:32:00,
2013-05-22 16:42:00,87.0,60.0,29.03,ENE,69,8.0,12.0,40,0.00,,,0.00,,2013-05-22 20:42:00,
2013-05-22 16:51:00,86.0,60.0,29.00,NE,56,5.0,12.0,41,0.00,,,0.00,,2013-05-22 20:51:00,
2013-05-22 17:01:00,86.0,60.0,29.00,NE,56,5.0,12.0,41,0.00,,,0.00,,2013-05-22 21:01:00,
2013-05-22 17:11:00,86.0,60.0,29.00,NE,56,5.0,12.0,41,0.00,,,0.00,,2013-05-22 21:11:00,
2013-05-22 17:21:00,84.0,58.0,29.00,ENE,70,9.0,12.0,41,0.00,,,0.00,,2013-05-22 21:21:00,
2013-05-22 17:33:00,72.0,60.0,29.03,East,90,3.0,9.0,67,0.00,,,0.00,,2013-05-22 21:33:00,
2013-05-22 17:42:00,72.0,60.0,29.03,East,90,3.0,9.0,67,0.00,,,0.00,,2013-05-22 21:42:00,
2013-05-22 17:52:00,70.0,61.0,29.03,North,0,0.0,6.0,73,0.00,,,0.00,,2013-05-22 21:52:00,
2013-05-22 18:03:00,70.0,63.0,29.03,North,0,0.0,4.0,79,0.00,,,0.00,,2013-05-22 22:03:00,
2013-05-22 18:13:00,70.0,63.0,29.03,North,0,0.0,4.0,79,0.00,,,0.00,,2013-05-22 22:13:00,
2013-05-22 18:22:00,73.0,65.0,29.03,North,0,0.0,3.0,77,0.00,,,0.00,,2013-05-22 22:22:00,
2013-05-22 18:33:00,75.0,64.0,29.03,North,0,0.0,0.0,69,0.00,,,0.00,,2013-05-22 22:33:00,
2013-05-22 18:42:00,75.0,64.0,29.03,North,0,0.0,0.0,69,0.00,,,0.00,,2013-05-22 22:42:00,
2013-05-22 18:52:00,74.0,66.0,29.03,WNW,298,5.0,9.0,76,0.00,,,0.00,,2013-05-22 22:52:00,
2013-05-22 19:02:00,72.0,65.0,29.03,NW,321,3.0,8.0,80,0.00,,,0.00,,2013-05-22 23:02:00,
2013-05-22 19:12:00,72.0,65.0,29.03,NW,321,3.0,8.0,80,0.00,,,0.00,,2013-05-22 23:12:00,
2013-05-22 19:22:00,72.0,65.0,29.03,NW,321,3.0,8.0,80,0.00,,,0.00,,2013-05-22 23:22:00,
2013-05-22 19:32:00,71.0,64.0,29.03,North,0,0.0,9.0,79,0.00,,,0.00,,2013-05-22 23:32:00,
2013-05-22 19:42:00,71.0,64.0,29.03,North,0,0.0,9.0,79,0.00,,,0.00,,2013-05-22 23:42:00,
2013-05-22 19:53:00,67.0,62.0,29.03,North,0,0.0,4.0,85,0.00,,,0.00,,2013-05-22 23:53:00,
2013-05-22 20:01:00,67.0,62.0,29.03,North,0,0.0,4.0,85,0.00,,,0.00,,2013-05-23 00:01:00,
2013-05-22 20:11:00,67.0,62.0,29.03,North,0,0.0,4.0,85,0.00,,,0.00,,2013-05-23 00:11:00,
2013-05-22 20:22:00,65.0,62.0,29.03,North,0,0.0,0.0,90,0.00,,,0.00,,2013-05-23 00:22:00,
2013-05-22 20:32:00,65.0,63.0,29.03,North,0,0.0,0.0,92,0.00,,,0.00,,2013-05-23 00:32:00,
2013-05-22 20:42:00,65.0,63.0,29.03,North,0,0.0,0.0,92,0.00,,,0.00,,2013-05-23 00:42:00,
2013-05-22 20:52:00,65.0,63.0,29.03,North,0,0.0,0.0,94,0.00,,,0.00,,2013-05-23 00:52:00,
2013-05-22 21:01:00,64.0,63.0,29.03,North,0,0.0,0.0,96,0.00,,,0.00,,2013-05-23 01:01:00,
2013-05-22 21:11:00,64.0,63.0,29.03,North,0,0.0,0.0,96,0.00,,,0.00,,2013-05-23 01:11:00,
2013-05-22 21:22:00,64.0,63.0,29.03,North,0,0.0,0.0,96,0.00,,,0.00,,2013-05-23 01:22:00,
2013-05-22 21:32:00,64.0,63.0,29.03,North,0,0.0,0.0,96,0.00,,,0.00,,2013-05-23 01:32:00,
2013-05-22 21:42:00,64.0,63.0,29.06,North,0,0.0,0.0,97,0.00,,,0.00,,2013-05-23 01:42:00,
2013-05-22 21:52:00,64.0,63.0,29.06,North,0,0.0,0.0,97,0.00,,,0.00,,2013-05-23 01:52:00,
2013-05-22 22:02:00,64.0,63.0,29.06,North,0,0.0,0.0,98,0.00,,,0.00,,2013-05-23 02:02:00,
2013-05-22 22:11:00,64.0,63.0,29.06,North,0,0.0,0.0,98,0.00,,,0.00,,2013-05-23 02:11:00,
2013-05-22 22:21:00,64.0,63.0,29.06,North,0,0.0,0.0,98,0.00,,,0.00,,2013-05-23 02:21:00,
2013-05-22 22:32:00,64.0,63.0,29.06,North,0,0.0,0.0,98,0.00,,,0.00,,2013-05-23 02:32:00,
2013-05-22 22:42:00,64.0,63.0,29.06,North,0,0.0,0.0,98,0.00,,,0.00,,2013-05-23 02:42:00,
2013-05-22 22:51:00,64.0,63.0,29.06,North,0,0.0,0.0,98,0.00,,,0.00,,2013-05-23 02:51:00,
2013-05-22 23:02:00,64.0,63.0,29.06,North,0,0.0,0.0,98,0.00,,,0.00,,2013-05-23 03:02:00,
2013-05-22 23:11:00,64.0,63.0,29.06,North,0,0.0,0.0,98,0.00,,,0.00,,2013-05-23 03:11:00,
2013-05-22 23:22:00,64.0,63.0,29.06,North,0,0.0,0.0,98,0.00,,,0.00,,2013-05-23 03:22:00,
2013-05-22 23:33:00,64.0,63.0,29.06,North,0,0.0,0.0,98,0.00,,,0.00,,2013-05-23 03:33:00,
2013-05-22 23:43:00,64.0,63.0,29.06,North,0,0.0,0.0,98,0.00,,,0.00,,2013-05-23 03:43:00,
2013-05-22 23:53:00,63.0,62.0,29.06,North,0,0.0,0.0,98,0.00,,,0.00,,2013-05-23 03:53:00,